Location: Unspecified
(0.0000°N, 0.0000°E)
Time: 09:03:32
(UTC+02:00)

Cosmos 1812 Rocket - Visible Passes

Search period start: 20 April 2018 00:00
Search period end: 30 April 2018 00:00
Orbit: 607 x 631 km, 82.5° (Epoch: 19 April)

Date Brightness Start Highest point End Pass type
(mag) Time Alt. Az. Time Alt. Az. Time Alt. Az.
20 Apr 6.7 05:36:04 10° ENE 05:37:46 12° E 05:39:27 10° ESE visible
20 Apr 4.5 07:11:41 10° NW 07:15:20 25° W 07:18:59 10° SSW visible
21 Apr 5.6 05:51:20 10° NNE 05:55:04 27° E 05:58:47 10° SE visible
21 Apr 5.4 07:31:18 10° WNW 07:32:38 11° W 07:33:57 10° WSW visible
22 Apr 3.9 06:07:59 10° N 06:12:21 63° E 06:16:43 10° SSE visible
23 Apr 4.5 06:25:20 10° NNW 06:28:01 34° NW 06:28:01 34° NW visible
